PACCTY Weather Reports


Display with metric or nautical units.
time (UTC)temp
F
wind
direction
speed
MPH
gust
MPH
rain 1hr
in
rain 24hr
in
rain mn
in
humidity
%
barometer
mb
20260506011018 59 256 0.0 4.0 0.00 0.00 0.00 81 1014.3
20260506010518 59 256 0.0 4.0 0.00 0.00 0.00 80 1014.2
20260506010018 59 253 0.0 4.0 0.00 0.00 0.00 80 1014.2
20260506005518 59 253 0.0 4.0 0.00 0.00 0.00 81 1014.2
20260506004517 59 0 0.0 0.0 0.00 0.00 0.00 81 1014.3
20260506004018 59 235 0.0 3.0 0.00 0.00 0.00 81 1014.3
20260506003517 59 219 0.0 3.0 0.00 0.00 0.00 80 1014.4
20260506003017 60 219 0.0 3.0 0.00 0.00 0.00 80 1014.4
20260506002517 60 120 0.0 3.0 0.00 0.00 0.00 81 1014.4
20260506001517 60 246 0.0 3.0 0.00 0.00 0.00 80 1014.3
20260506001017 60 246 2.0 3.0 0.00 0.00 0.00 80 1014.3
20260506000517 60 232 1.0 7.0 0.00 0.00 0.00 80 1014.3
20260505235550 60 214 1.0 5.0 0.00 0.00 0.00 80 1014.4
20260505235517 60 214 1.0 5.0 0.00 0.00 0.00 80 1014.4
20260505235018 60 214 2.0 5.0 0.00 0.00 0.00 80 1014.4
20260505234518 60 257 3.0 6.0 0.00 0.00 0.00 79 1014.5
20260505234017 60 257 1.0 6.0 0.00 0.00 0.00 79 1014.5
20260505233517 60 235 3.0 3.0 0.00 0.00 0.00 79 1014.5
20260505233018 60 235 1.0 3.0 0.00 0.00 0.00 80 1014.5
20260505232517 60 170 0.0 5.0 0.00 0.00 0.00 79 1014.5
20260505232017 60 239 1.0 5.0 0.00 0.00 0.00 79 1014.5
20260505231517 60 239 3.0 5.0 0.00 0.00 0.00 79 1014.6
20260505230517 60 198 3.0 6.0 0.00 0.00 0.00 79 1014.8
20260505230017 60 246 0.0 6.0 0.00 0.00 0.00 79 1014.8
20260505225018 60 215 1.0 5.0 0.00 0.00 0.00 80 1014.8
20260505224518 60 215 2.0 5.0 0.00 0.00 0.00 79 1014.9
20260505224020 60 239 0.0 5.0 0.00 0.00 0.00 79 1014.9
20260505223518 60 239 0.0 5.0 0.00 0.00 0.00 79 1015.0
20260505223018 60 208 0.0 5.0 0.00 0.00 0.00 78 1015.0
20260505222517 60 208 0.0 5.0 0.00 0.00 0.00 78 1015.0
20260505221517 60 217 2.0 4.0 0.00 0.00 0.00 79 1014.8
20260505220517 61 254 2.0 4.0 0.00 0.00 0.00 77 1014.8
20260505215019 61 259 2.0 5.0 0.00 0.00 0.00 78 1015.0
20260505211517 60 0 0.0 2.0 0.00 0.00 0.00 79 1015.2
20260505205018 59 0 0.0 0.0 0.00 0.00 0.00 81 1015.4
20260505204517 59 0 0.0 0.0 0.00 0.00 0.00 80 1015.5
20260505202517 59 0 0.0 0.0 0.00 0.00 0.00 81 1015.5
20260505201517 59 0 0.0 0.0 0.00 0.00 0.00 81 1015.5
20260505200017 59 0 0.0 0.0 0.00 0.00 0.00 82 1015.6
20260505195517 59 0 0.0 0.0 0.00 0.00 0.00 82 1015.6
20260505194517 58 0 0.0 0.0 0.00 0.00 0.00 83 1015.5
20260505192519 58 0 0.0 0.0 0.00 0.00 0.00 85 1015.6
20260505192018 58 0 0.0 0.0 0.00 0.00 0.00 85 1015.7
20260505191518 58 0 0.0 0.0 0.00 0.00 0.00 85 1015.7
20260505191018 58 0 0.0 0.0 0.00 0.00 0.00 84 1015.7
20260505190518 58 0 0.0 0.0 0.00 0.00 0.00 84 1015.8
20260505184517 58 0 0.0 0.0 0.00 0.00 0.00 84 1015.8
20260505183518 58 0 0.0 0.0 0.00 0.00 0.00 85 1015.7
20260505183018 58 0 0.0 0.0 0.00 0.00 0.00 85 1015.6
20260505181517 58 0 0.0 0.0 0.00 0.00 0.00 85 1015.4
20260505181018 58 0 0.0 0.0 0.00 0.00 0.00 84 1015.4
20260505180517 58 0 0.0 0.0 0.00 0.00 0.00 85 1015.4
20260505175517 58 0 0.0 0.0 0.00 0.00 0.00 85 1015.3
20260505175018 57 0 0.0 0.0 0.00 0.00 0.00 85 1015.3
20260505174517 58 0 0.0 0.0 0.00 0.00 0.00 85 1015.2
20260505174017 57 0 0.0 0.0 0.00 0.00 0.00 85 1015.2
20260505173517 58 0 0.0 0.0 0.00 0.00 0.00 85 1015.1
20260505172517 57 0 0.0 0.0 0.00 0.00 0.00 85 1014.9
20260505172017 57 0 0.0 0.0 0.00 0.00 0.00 85 1014.7
20260505171017 57 0 0.0 0.0 0.00 0.00 0.00 85 1014.6
20260505170517 57 0 0.0 0.0 0.00 0.00 0.00 86 1014.6
20260505170017 57 0 0.0 0.0 0.00 0.00 0.00 86 1014.5
20260505165517 57 0 0.0 0.0 0.00 0.00 0.00 86 1014.5
20260505165017 57 0 0.0 0.0 0.00 0.00 0.00 86 1014.4
20260505164518 57 0 0.0 0.0 0.00 0.00 0.00 87 1014.4
20260505164017 57 0 0.0 0.0 0.00 0.00 0.00 87 1014.4
20260505163518 57 0 0.0 0.0 0.00 0.00 0.00 87 1014.4
20260505163017 57 0 0.0 0.0 0.00 0.00 0.00 88 1014.4
20260505162017 56 0 0.0 0.0 0.00 0.00 0.00 88 1014.2
20260505161532 56 0 0.0 0.0 0.00 0.00 0.00 89 1014.2
20260505161518 56 0 0.0 0.0 0.00 0.00 0.00 89 1014.2
20260505161017 56 0 0.0 0.0 0.00 0.00 0.00 89 1014.2
20260505160517 56 0 0.0 0.0 0.00 0.00 0.00 89 1014.1
20260505152518 55 0 0.0 0.0 0.00 0.00 0.00 92 1014.1
20260505152017 55 0 0.0 0.0 0.00 0.00 0.00 93 1014.1
20260505151518 55 0 0.0 0.0 0.00 0.00 0.00 93 1014.1
20260505151017 55 0 0.0 0.0 0.00 0.00 0.00 93 1014.0
20260505150517 55 0 0.0 0.0 0.00 0.00 0.00 93 1014.0
20260505140518 54 0 0.0 0.0 0.00 0.00 0.00 94 1013.8
20260505125017 54 0 0.0 0.0 0.00 0.00 0.00 93 1013.2
20260505124017 54 0 0.0 0.0 0.00 0.00 0.00 93 1013.2
20260505123017 54 0 0.0 0.0 0.00 0.00 0.00 93 1013.1
20260505122517 55 0 0.0 0.0 0.00 0.00 0.00 93 1013.1
20260505122017 54 0 0.0 0.0 0.00 0.00 0.00 93 1013.1
20260505121517 54 0 0.0 0.0 0.00 0.00 0.00 93 1013.1
20260505121017 55 0 0.0 0.0 0.00 0.00 0.00 93 1013.1
20260505120517 55 0 0.0 0.0 0.00 0.00 0.00 93 1013.1
20260505120017 55 0 0.0 0.0 0.00 0.00 0.00 93 1013.1
20260505114516 55 0 0.0 0.0 0.00 0.00 0.00 92 1013.1
20260505114017 55 0 0.0 0.0 0.00 0.00 0.00 92 1013.1
20260505113517 55 0 0.0 0.0 0.00 0.00 0.00 93 1013.1
20260505112517 55 0 0.0 0.0 0.00 0.00 0.00 93 1013.0
20260505112016 55 0 0.0 0.0 0.00 0.00 0.00 93 1013.0
20260505111516 55 0 0.0 0.0 0.00 0.00 0.00 93 1013.0
20260505111016 55 0 0.0 0.0 0.00 0.00 0.00 93 1013.0
20260505110516 55 0 0.0 0.0 0.00 0.00 0.00 92 1013.0
20260505102016 55 0 0.0 0.0 0.00 0.00 0.00 92 1012.9
20260505101519 55 0 0.0 0.0 0.00 0.00 0.00 92 1012.9
20260505101016 55 0 0.0 0.0 0.00 0.00 0.00 92 1012.9
20260505100516 55 0 0.0 0.0 0.00 0.00 0.00 92 1012.8
20260505100017 55 0 0.0 0.0 0.00 0.00 0.00 92 1012.8
20260505095516 55 0 0.0 0.0 0.00 0.00 0.00 92 1012.8
20260505095017 55 0 0.0 0.0 0.00 0.00 0.00 92 1012.8
20260505094516 55 0 0.0 0.0 0.00 0.00 0.00 92 1012.9
20260505094016 55 0 0.0 0.0 0.00 0.00 0.00 92 1012.9
20260505093516 55 0 0.0 0.0 0.00 0.00 0.00 92 1012.9
20260505092516 55 0 0.0 0.0 0.00 0.00 0.00 91 1012.7
20260505092016 55 0 0.0 0.0 0.00 0.00 0.00 92 1012.7
20260505091516 55 0 0.0 0.0 0.00 0.00 0.00 92 1012.7
20260505091016 55 0 0.0 0.0 0.00 0.00 0.00 92 1012.7
20260505090017 55 0 0.0 0.0 0.00 0.00 0.00 92 1012.7
20260505085516 55 0 0.0 0.0 0.00 0.00 0.00 92 1012.6
20260505085016 55 0 0.0 0.0 0.00 0.00 0.00 92 1012.6
20260505084516 55 0 0.0 0.0 0.00 0.00 0.00 92 1012.7
20260505084016 55 0 0.0 0.0 0.00 0.00 0.00 92 1012.7
20260505083018 55 0 0.0 0.0 0.00 0.00 0.00 92 1012.6
20260505082517 55 0 0.0 0.0 0.00 0.00 0.00 92 1012.5
20260505082019 55 0 0.0 0.0 0.00 0.00 0.00 92 1012.5
20260505081516 55 0 0.0 0.0 0.00 0.00 0.00 92 1012.4
20260505081016 55 0 0.0 0.0 0.00 0.00 0.00 92 1012.4
20260505080516 55 0 0.0 0.0 0.00 0.00 0.00 92 1012.4
20260505075516 55 0 0.0 0.0 0.00 0.00 0.00 92 1012.4
20260505075018 55 0 0.0 0.0 0.00 0.00 0.00 92 1012.3
20260505074516 55 0 0.0 0.0 0.00 0.00 0.00 92 1012.3
20260505074016 55 0 0.0 0.0 0.00 0.00 0.00 92 1012.3
20260505073521 55 0 0.0 0.0 0.00 0.00 0.00 92 1012.4
20260505073516 55 0 0.0 0.0 0.00 0.00 0.00 92 1012.4
20260505072516 55 0 0.0 0.0 0.00 0.00 0.00 92 1012.3
20260505072016 55 0 0.0 0.0 0.00 0.00 0.00 92 1012.2
20260505070516 55 0 0.0 0.0 0.00 0.00 0.00 92 1012.1
20260505070016 55 0 0.0 0.0 0.00 0.00 0.00 92 1012.1
20260505065516 56 0 0.0 0.0 0.00 0.00 0.00 92 1012.1
20260505065016 55 0 0.0 0.0 0.00 0.00 0.00 92 1012.1
20260505064516 55 0 0.0 0.0 0.00 0.00 0.00 92 1012.1
20260505064017 56 0 0.0 0.0 0.00 0.00 0.00 92 1012.1
20260505063516 55 0 0.0 0.0 0.00 0.00 0.00 92 1012.2
20260505063016 55 0 0.0 0.0 0.00 0.00 0.00 92 1012.3
20260505062017 55 0 0.0 0.0 0.00 0.00 0.00 92 1012.2
20260505061516 55 0 0.0 0.0 0.00 0.00 0.00 92 1012.2
20260505061016 55 0 0.0 0.0 0.00 0.00 0.00 92 1012.2
20260505060516 55 0 0.0 0.0 0.00 0.00 0.00 92 1012.2
20260505055516 55 0 0.0 0.0 0.00 0.00 0.00 92 1012.2
20260505055016 55 0 0.0 0.0 0.00 0.00 0.00 92 1012.2
20260505054516 55 0 0.0 2.0 0.00 0.00 0.00 92 1012.1
20260505053517 55 0 0.0 0.0 0.00 0.00 0.00 92 1012.2
20260505053018 56 0 0.0 0.0 0.00 0.00 0.00 92 1012.1
20260505052517 55 0 0.0 0.0 0.00 0.00 0.00 91 1012.1
20260505052016 56 0 0.0 0.0 0.00 0.00 0.00 91 1012.1
20260505051516 56 217 0.0 2.0 0.00 0.00 0.00 91 1012.2
20260505051016 56 217 0.0 2.0 0.00 0.00 0.00 91 1012.2
20260505050516 56 214 1.0 2.0 0.00 0.00 0.00 91 1012.2
20260505041519 56 0 0.0 2.0 0.00 0.00 0.00 89 1011.9
20260505041017 56 0 0.0 2.0 0.00 0.00 0.00 89 1011.9
20260505040516 56 0 0.0 2.0 0.00 0.00 0.00 88 1011.8
20260505035516 56 217 1.0 4.0 0.00 0.00 0.00 88 1011.6
20260505034017 56 231 0.0 3.0 0.00 0.00 0.00 87 1011.5
20260505033516 56 215 0.0 3.0 0.00 0.00 0.00 87 1011.5
20260505032516 56 253 1.0 3.0 0.00 0.00 0.00 87 1011.3
20260505032016 56 226 0.0 3.0 0.00 0.00 0.00 87 1011.3
20260505031517 56 226 1.0 3.0 0.00 0.00 0.00 87 1011.3
20260505031016 57 226 0.0 3.0 0.00 0.00 0.00 87 1011.1
20260505030516 57 203 1.0 3.0 0.00 0.00 0.00 86 1011.1
20260505030019 57 203 1.0 3.0 0.00 0.00 0.00 86 1011.0
20260505025516 57 210 1.0 2.0 0.00 0.00 0.00 86 1011.1
20260505025018 57 210 1.0 2.0 0.00 0.00 0.00 85 1011.1
20260505024516 57 235 2.0 8.0 0.00 0.00 0.00 85 1011.1
20260505024016 57 235 1.0 8.0 0.00 0.00 0.00 85 1011.0
20260505023516 57 221 2.0 6.0 0.00 0.00 0.00 85 1011.0
20260505023016 57 221 3.0 6.0 0.00 0.00 0.00 85 1011.0
20260505022516 57 217 2.0 5.0 0.00 0.00 0.00 85 1010.9
20260505022016 57 217 2.0 5.0 0.00 0.00 0.00 84 1011.0
20260505021516 58 245 1.0 5.0 0.00 0.00 0.00 84 1011.0
20260505021016 58 271 2.0 5.0 0.00 0.00 0.00 84 1011.0
20260505020018 58 264 3.0 5.0 0.00 0.00 0.00 83 1011.0
20260505015516 58 246 2.0 4.0 0.00 0.00 0.00 82 1011.1
20260505015016 59 226 2.0 5.0 0.00 0.00 0.00 82 1011.1
20260505014516 59 226 2.0 5.0 0.00 0.00 0.00 82 1011.1
20260505014017 59 233 3.0 5.0 0.00 0.00 0.00 81 1011.1
20260505013516 59 233 2.0 5.0 0.00 0.00 0.00 81 1011.1
20260505013016 60 221 1.0 4.0 0.00 0.00 0.00 81 1011.1
20260505012516 60 221 2.0 4.0 0.00 0.00 0.00 80 1011.1
20260505012016 60 197 2.0 4.0 0.00 0.00 0.00 81 1011.1
20260505011517 60 197 3.0 4.0 0.00 0.00 0.00 80 1011.1